Location: Tel Aviv
(32.0670°N, 34.7670°E)
Time: 03:21:12
(UTC+03:00)

Transit 2A - Visible Passes

Search period start: 08 August 2022 00:00
Search period end: 18 August 2022 00:00
Orbit: 601 x 956 km, 66.7° (Epoch: 07 August)

Date Brightness Start Highest point End Pass type
(mag) Time Alt. Az. Time Alt. Az. Time Alt. Az.
08 Aug 6.9 22:10:40 10° NNW 22:13:24 37° N 22:13:24 37° N visible
09 Aug 6.4 21:36:32 10° N 21:40:02 38° NE 21:40:02 38° NE visible
10 Aug 6.8 21:02:35 10° N 21:06:18 26° ENE 21:06:44 25° ENE visible
10 Aug 8.1 22:45:42 10° WNW 22:47:13 17° WNW 22:47:13 17° WNW visible
11 Aug 7.4 20:28:58 10° NNE 20:31:50 17° NE 20:33:29 14° E visible
11 Aug 7.1 22:10:52 10° NW 22:13:59 33° W 22:13:59 33° W visible
12 Aug 7.8 19:56:25 10° NE 19:57:18 10° NE 19:58:11 10° ENE visible
12 Aug 5.8 21:36:18 10° NNW 21:40:43 65° WSW 21:40:48 65° WSW visible
13 Aug 5.5 21:01:58 10° NNW 21:06:23 75° ENE 21:07:41 47° SE visible
14 Aug 6.1 20:27:47 10° NNW 20:32:03 45° ENE 20:34:40 22° ESE visible
14 Aug 8.2 22:12:37 10° WNW 22:14:48 13° WSW 22:15:09 13° WSW visible
15 Aug 6.7 19:53:49 10° N 19:57:39 28° ENE 20:01:41 10° ESE visible
15 Aug 7.7 21:37:06 10° WNW 21:40:35 22° WSW 21:42:13 18° SW visible
16 Aug 7.0 21:02:12 10° NW 21:06:19 36° WSW 21:09:23 17° SSW visible
17 Aug 6.1 20:27:37 10° NNW 20:32:02 60° WSW 20:36:41 11° SSE visible
